AFL2350 ULLI-URSS

Flight info

Callsign AFL2350
Flight time N/A
Altitude 37000
Route SUGIN1A SUGIN T873 TOKNU L4 UPERI DCT DOSAG M56 ABAGI B105 PELNE/K0850F390 B105 NIMTA/K0826F350 W21 WGD/K0841F380 G481 TONGI/K0843F390 G481 ELI/K0839F380 G481 LARIN G487 BINOL BINOL1K
Aircraft A20N/M-SDE2E3FGHIRWXY/LB1

Departure

Time N/A
Airport Pulkovo Airport (ULLI)

Arrival

Time 2026-04-30 19:28
Airport Sochi International Airport (URSS)
Time Latitude Longitude Altitude Speed Heading
2026-04-30 17:39 56.60994 37.05560 37221 ft 471 kts 135°
2026-04-30 17:42 56.36703 37.45206 37218 ft 471 kts 136°
2026-04-30 17:43 56.24504 37.64853 37215 ft 470 kts 136°
2026-04-30 17:44 56.09825 37.88258 37210 ft 471 kts 136°
2026-04-30 17:47 55.87717 38.23047 37220 ft 471 kts 137°
2026-04-30 17:48 55.70484 38.49787 37220 ft 471 kts 137°
2026-04-30 17:50 55.50756 38.80004 37217 ft 469 kts 138°
2026-04-30 17:52 55.35901 39.02484 37222 ft 469 kts 139°
2026-04-30 17:54 55.13580 39.35833 37220 ft 468 kts 139°
2026-04-30 17:56 54.94517 39.63913 37221 ft 468 kts 140°
2026-04-30 17:58 54.79562 39.85690 37221 ft 468 kts 140°
2026-04-30 18:00 54.59576 40.14459 37220 ft 467 kts 140°
2026-04-30 18:01 54.47045 40.32302 37216 ft 467 kts 140°
2026-04-30 18:02 54.31982 40.53561 37213 ft 467 kts 141°
2026-04-30 18:04 54.16894 40.74645 37214 ft 468 kts 141°
2026-04-30 18:06 53.97149 41.03340 37209 ft 468 kts 126°
2026-04-30 18:07 53.92448 41.23789 37204 ft 468 kts 105°
2026-04-30 18:08 53.89825 41.39757 37209 ft 469 kts 106°
2026-04-30 18:10 53.82696 41.82107 37205 ft 469 kts 107°
2026-04-30 18:11 53.75944 42.18865 37199 ft 467 kts 121°
2026-04-30 18:12 53.68934 42.29840 37193 ft 463 kts 153°
2026-04-30 18:13 53.63202 42.34783 37192 ft 462 kts 154°
2026-04-30 18:14 53.49016 42.47510 37192 ft 462 kts 153°
2026-04-30 18:15 53.32028 42.62883 37181 ft 463 kts 153°
2026-04-30 18:16 53.20683 42.73068 37177 ft 462 kts 153°
2026-04-30 18:17 53.15023 42.78125 37174 ft 462 kts 153°
2026-04-30 18:18 53.06524 42.85692 37172 ft 462 kts 154°
2026-04-30 18:18 53.00855 42.90719 37160 ft 462 kts 154°
2026-04-30 18:19 52.95196 42.95725 37166 ft 460 kts 154°
2026-04-30 18:19 52.89539 43.00711 37158 ft 461 kts 154°
2026-04-30 18:20 52.83868 43.05695 37153 ft 463 kts 154°
2026-04-30 18:20 52.78187 43.10675 37154 ft 462 kts 154°
2026-04-30 18:21 52.72503 43.15642 37154 ft 461 kts 154°
2026-04-30 18:21 52.66835 43.20580 37164 ft 461 kts 154°
2026-04-30 18:22 52.61161 43.25508 37154 ft 461 kts 154°
2026-04-30 18:22 52.52683 43.32845 37142 ft 461 kts 154°
2026-04-30 18:23 52.47006 43.37740 37145 ft 461 kts 154°
2026-04-30 18:23 52.41324 43.42625 37146 ft 461 kts 154°
2026-04-30 18:24 52.32789 43.49936 37141 ft 461 kts 154°
2026-04-30 18:25 52.23075 43.58219 37151 ft 461 kts 155°
2026-04-30 18:25 51.86427 43.89097 37151 ft 461 kts 155°
2026-04-30 18:26 51.52200 44.17428 37150 ft 460 kts 156°
2026-04-30 18:27 51.24050 44.40369 37152 ft 460 kts 156°
2026-04-30 18:28 51.15148 44.45789 37148 ft 453 kts 173°
2026-04-30 18:28 51.05854 44.45982 37149 ft 447 kts 187°
2026-04-30 18:29 50.93462 44.44808 37149 ft 445 kts 186°
2026-04-30 18:30 50.81086 44.43657 37152 ft 445 kts 187°
2026-04-30 18:31 50.71809 44.42797 37150 ft 445 kts 187°
2026-04-30 18:32 50.65610 44.42224 37313 ft 446 kts 187°
2026-04-30 18:32 50.62523 44.41940 37520 ft 445 kts 187°
2026-04-30 18:32 50.56337 44.41372 37817 ft 445 kts 187°
2026-04-30 18:33 50.53245 44.41088 37974 ft 445 kts 187°
2026-04-30 18:33 50.47065 44.40521 38151 ft 445 kts 187°
2026-04-30 18:33 50.43983 44.40239 38151 ft 444 kts 187°
2026-04-30 18:34 50.34769 44.39398 38151 ft 444 kts 187°
2026-04-30 18:35 50.28613 44.38841 38145 ft 442 kts 187°
2026-04-30 18:35 50.22468 44.38283 38151 ft 442 kts 187°
2026-04-30 18:36 50.13245 44.37448 38148 ft 442 kts 187°
2026-04-30 18:37 50.04025 44.36617 38154 ft 442 kts 187°
2026-04-30 18:37 49.97875 44.36066 38147 ft 443 kts 187°
2026-04-30 18:38 49.91725 44.35516 38147 ft 443 kts 187°
2026-04-30 18:38 49.85574 44.34966 38145 ft 443 kts 187°
2026-04-30 18:39 49.68921 44.33486 38153 ft 443 kts 187°
2026-04-30 18:39 49.44411 44.32724 38139 ft 445 kts 183°
2026-04-30 18:40 49.19638 44.33340 38150 ft 445 kts 184°
2026-04-30 18:40 48.94928 44.33945 38153 ft 443 kts 184°
2026-04-30 18:41 48.70234 44.34357 38155 ft 442 kts 185°
2026-04-30 18:41 48.45621 44.34230 38166 ft 442 kts 185°
2026-04-30 18:42 48.21047 44.34136 38165 ft 441 kts 185°
2026-04-30 18:42 47.84210 44.34126 38174 ft 443 kts 185°
2026-04-30 18:45 46.53730 44.35426 38183 ft 437 kts 185°
2026-04-30 18:46 46.30424 44.30246 38183 ft 416 kts 213°
2026-04-30 18:46 46.09974 44.14307 38189 ft 417 kts 213°
2026-04-30 18:47 45.89612 43.98623 38179 ft 419 kts 212°
2026-04-30 18:47 45.68740 43.84070 38175 ft 417 kts 211°
2026-04-30 18:48 45.47902 43.69590 38185 ft 416 kts 211°
2026-04-30 18:48 45.27291 43.54853 38183 ft 414 kts 212°
2026-04-30 18:49 45.06747 43.40140 38172 ft 411 kts 216°
2026-04-30 18:49 44.87017 43.23889 38164 ft 410 kts 216°
2026-04-30 18:50 44.67302 43.07813 38149 ft 409 kts 216°
2026-04-30 18:50 44.58970 42.97590 38164 ft 395 kts 240°
2026-04-30 18:50 44.54437 42.83686 38184 ft 392 kts 248°
2026-04-30 18:51 44.48347 42.63859 38166 ft 391 kts 248°
2026-04-30 18:51 44.44541 42.51538 38166 ft 391 kts 248°
2026-04-30 18:52 44.42374 42.44548 38172 ft 391 kts 248°
2026-04-30 18:52 44.40222 42.37626 38169 ft 390 kts 248°
2026-04-30 18:53 44.38055 42.30676 38167 ft 390 kts 248°
2026-04-30 18:53 44.35884 42.23731 38169 ft 390 kts 248°
2026-04-30 18:54 44.33709 42.16791 38167 ft 390 kts 248°
2026-04-30 18:54 44.31530 42.09856 38191 ft 390 kts 248°
2026-04-30 18:55 44.29346 42.02925 38165 ft 389 kts 248°
2026-04-30 18:55 44.26066 41.92549 38164 ft 390 kts 248°
2026-04-30 18:56 44.22773 41.82175 38164 ft 390 kts 248°
2026-04-30 18:57 44.19472 41.71819 38161 ft 390 kts 248°
2026-04-30 18:57 44.17265 41.64914 38162 ft 391 kts 248°
2026-04-30 18:58 44.13949 41.54576 38156 ft 390 kts 248°
2026-04-30 18:59 44.10665 41.44277 38147 ft 389 kts 249°
2026-04-30 19:00 44.06465 41.30375 38160 ft 390 kts 249°
2026-04-30 19:00 44.04348 41.23441 37847 ft 389 kts 249°
2026-04-30 19:01 44.02241 41.16571 37302 ft 384 kts 249°
2026-04-30 19:01 44.01194 41.13162 37041 ft 384 kts 249°
2026-04-30 19:02 43.99097 41.06348 36509 ft 383 kts 249°
2026-04-30 19:02 43.97007 40.99576 35977 ft 380 kts 249°
2026-04-30 19:03 43.94927 40.92855 35047 ft 375 kts 249°
2026-04-30 19:03 43.92888 40.86286 34073 ft 367 kts 249°
2026-04-30 19:04 43.90878 40.79818 32525 ft 374 kts 249°
2026-04-30 19:04 43.88799 40.73153 30804 ft 380 kts 249°
2026-04-30 19:05 43.86691 40.66455 29511 ft 380 kts 249°
2026-04-30 19:05 43.84505 40.59602 28817 ft 391 kts 248°
2026-04-30 19:06 43.82284 40.52649 27115 ft 397 kts 248°
2026-04-30 19:06 43.81170 40.49168 26388 ft 394 kts 248°
2026-04-30 19:06 43.78964 40.42286 24999 ft 386 kts 248°
2026-04-30 19:07 43.76793 40.35523 23640 ft 382 kts 247°
2026-04-30 19:07 43.75719 40.32184 22958 ft 378 kts 247°
2026-04-30 19:08 43.73615 40.25663 21753 ft 367 kts 247°
2026-04-30 19:08 43.71562 40.19314 20586 ft 357 kts 247°
2026-04-30 19:08 43.70558 40.16213 20223 ft 349 kts 247°
2026-04-30 19:09 43.67890 40.10831 19408 ft 347 kts 225°
2026-04-30 19:09 43.65859 40.08934 18660 ft 359 kts 210°
2026-04-30 19:09 43.63617 40.07562 18289 ft 352 kts 209°
2026-04-30 19:10 43.59229 40.04830 18101 ft 350 kts 209°
2026-04-30 19:10 43.54804 40.02056 17758 ft 349 kts 209°
2026-04-30 19:11 43.52576 40.00662 17033 ft 353 kts 209°
2026-04-30 19:11 43.48113 39.97876 16086 ft 341 kts 208°
2026-04-30 19:11 43.45986 39.96558 16003 ft 335 kts 208°
2026-04-30 19:12 43.43786 39.95440 15948 ft 337 kts 203°
2026-04-30 19:12 43.41555 39.94429 15314 ft 338 kts 203°
2026-04-30 19:12 43.39367 39.93439 15049 ft 322 kts 203°
2026-04-30 19:13 43.35360 39.91631 14726 ft 284 kts 204°
2026-04-30 19:13 43.31846 39.90039 14352 ft 251 kts 204°
2026-04-30 19:13 43.30166 39.89266 13698 ft 260 kts 204°
2026-04-30 19:14 43.28420 39.88456 13081 ft 266 kts 203°
2026-04-30 19:14 43.26698 39.87672 12927 ft 256 kts 203°
2026-04-30 19:14 43.25009 39.86905 12512 ft 256 kts 203°
2026-04-30 19:14 43.23315 39.86135 12099 ft 256 kts 202°
2026-04-30 19:15 43.21623 39.85366 11719 ft 256 kts 202°
2026-04-30 19:15 43.18788 39.82872 10895 ft 243 kts 243°
2026-04-30 19:15 43.18420 39.80730 10695 ft 225 kts 273°
2026-04-30 19:16 43.18922 39.78832 10412 ft 209 kts 304°
2026-04-30 19:16 43.20071 39.77626 9740 ft 212 kts 327°
2026-04-30 19:16 43.21748 39.74636 8700 ft 175 kts 292°
2026-04-30 19:17 43.22301 39.73265 8539 ft 163 kts 296°
2026-04-30 19:17 43.23801 39.70404 8528 ft 191 kts 303°
2026-04-30 19:17 43.24270 39.68665 8547 ft 203 kts 268°
2026-04-30 19:18 43.23226 39.65982 8355 ft 200 kts 210°
2026-04-30 19:18 43.21470 39.65147 7895 ft 204 kts 197°
2026-04-30 19:18 43.20090 39.64570 7430 ft 210 kts 197°
2026-04-30 19:19 43.18684 39.63976 6986 ft 213 kts 197°
2026-04-30 19:19 43.17274 39.63374 6642 ft 211 kts 197°
2026-04-30 19:19 43.14491 39.63535 5853 ft 210 kts 143°
2026-04-30 19:20 43.13659 39.65147 5474 ft 212 kts 107°
2026-04-30 19:20 43.13681 39.67148 5100 ft 216 kts 72°
2026-04-30 19:20 43.15834 39.70162 4252 ft 229 kts 37°
2026-04-30 19:21 43.17118 39.71434 3999 ft 227 kts 37°
2026-04-30 19:21 43.19687 39.73908 3465 ft 225 kts 37°
2026-04-30 19:22 43.22217 39.76361 2988 ft 218 kts 37°
2026-04-30 19:22 43.25792 39.79914 2264 ft 208 kts 37°
2026-04-30 19:23 43.29119 39.83292 1997 ft 183 kts 39°
2026-04-30 19:24 43.31235 39.85297 1999 ft 185 kts 31°
2026-04-30 19:24 43.32364 39.86152 1998 ft 185 kts 29°
2026-04-30 19:24 43.34630 39.87848 1999 ft 185 kts 29°
2026-04-30 19:25 43.37738 39.90179 1297 ft 143 kts 28°
2026-04-30 19:26 43.39382 39.91415 949 ft 134 kts 28°
2026-04-30 19:26 43.41001 39.92632 612 ft 132 kts 28°
2026-04-30 19:26 43.41805 39.93237 437 ft 131 kts 29°
2026-04-30 19:27 43.43398 39.94436 161 ft 131 kts 29°
2026-04-30 19:27 43.44649 39.95371 76 ft 50 kts 28°
2026-04-30 19:28 43.44903 39.95560 75 ft 40 kts 28°
2026-04-30 19:28 43.45254 39.95800 51 ft 9 kts 356°
2026-04-30 19:29 43.45241 39.95680 58 ft 6 kts 239°
2026-04-30 19:29 43.45227 39.95648 58 ft 0 kts 238°
2026-04-30 19:30 43.45227 39.95647 58 ft 0 kts 238°
2026-04-30 19:31 43.45160 39.95573 67 ft 8 kts 210°
2026-04-30 19:31 43.45109 39.95534 67 ft 8 kts 208°
2026-04-30 19:31 43.45033 39.95392 69 ft 12 kts 244°
2026-04-30 19:32 43.44991 39.95273 72 ft 16 kts 244°
2026-04-30 19:32 43.44938 39.95122 72 ft 19 kts 244°
2026-04-30 19:32 43.44875 39.94941 63 ft 23 kts 244°
2026-04-30 19:32 43.44804 39.94736 69 ft 25 kts 244°
2026-04-30 19:33 43.44767 39.94628 63 ft 3 kts 245°
2026-04-30 19:33 43.44751 39.94583 63 ft 8 kts 245°
2026-04-30 19:33 43.44723 39.94498 65 ft 12 kts 245°
2026-04-30 19:33 43.44737 39.94429 66 ft 7 kts 335°
2026-04-30 19:34 43.44789 39.94393 64 ft 10 kts 334°
2026-04-30 19:34 43.44810 39.94380 66 ft 1 kts 334°